Hourly Data Report for October 10, 2016

All times are specified in Local Standard Time (LST). Add 1 hour to adjust for Daylight Saving Time where and when it is observed.

PETAWAWA AWOS 2
ONTARIO

45°57'00.000" N
77°19'00.000" W
130.10 m
6106396
71625
YWA

Download Data

Hourly Data (October 2016)
Hourly Data Report for October 10, 2016
Temp Definition
°C
Dew Point Temp Definition
°C
Rel Hum Definition
%
Wind Dir Definition
10's deg

Wind Spd Definition
km/h
Visibility Definition
km
Stn Press Definition
kPa
Hmdx Definition


Wind Chill Definition


Weather Definition


TIME
00:00 1.5 -1.0 83 29 13 14.5 101.38     LegendNANA
01:00 1.4 -1.2 83 29 9 14.5 101.37     LegendNANA
02:00 -1.5 -2.7 92 27 6 14.5 101.34   -4 LegendNANA
03:00 -1.2 -2.1 94 27 9 14.5 101.37   -4 LegendNANA
04:00 -0.1 -1.1 93 29 9 14.5 101.43   -3 LegendNANA
05:00 -0.4 -1.4 93 30 7 14.5 101.49   -3 LegendNANA
06:00 -0.5 -1.6 92 29 13 14.5 101.53   -5 LegendNANA
07:00 -0.2 -1.4 92 28 9 14.5 101.56   -3 LegendNANA
08:00 2.1 -0.1 85 28 6 14.5 101.57     LegendNANA
09:00 3.9 0.7 80 34 7 14.5 101.59     LegendNANA
10:00 6.4 1.1 69 32 9 14.5 101.58     LegendNANA
11:00 8.0 -0.3 56 29 13 14.5 101.52     LegendNANA
12:00 9.3 0.4 54 29 13 14.5 101.45     LegendNANA
13:00 10.6 -0.4 46 29 7 14.5 101.36     LegendNANA
14:00 11.3 -0.2 45 34 11 14.5 101.30     LegendNANA
15:00 11.8 -0.1 44 31 7 14.5 101.28     LegendNANA
16:00 12.3 -1.4 39 21 4 14.5 101.25     LegendNANA
17:00 11.1 -0.1 46   0 14.5 101.24     LegendNANA
18:00 7.0 2.9 75 21 4 14.5 101.23     LegendNANA
19:00 4.9 2.5 84   0 14.5 101.24     LegendNANA
20:00 3.2 1.8 90 20 4 14.5 101.24     LegendNANA
21:00 2.7 1.9 94   0 14.5 101.25     LegendNANA
22:00 1.8 1.2 96   0 14.5 101.24     LegendNANA
23:00 0.3 0.0 98   0 14.5 101.27     LegendNANA

Notes on Data Quality.

Legend

  • E = Estimated
  • M = Missing
  • NA = Not Available
  • ‡ = Partner data that is not subject to review by the National Climate Archives
Date modified: